Theta_e
338 338 338 338 337 338 343 342 344 345 345 346 345 345 344 344 343 344 343 343 342 337 335 334 335 339 345 342 344 344 344 343 343 343 342 341 340 340 340 340 341 343 343 343 343 344 346 347 347 348 348 349 350 345 337 338 338 341 332 335 337 333
336 337 337 339 340 340 340 343 338 338 340 343 344 342 340 338 343 334 344 339 336 339 334 333 336 345 339 342 343 344 344 343 343 343 342 342 340 340 340 342 343 343 343 343 344 338 341 345 346 347 348 350 347 339 336 337 336 337 333 333 335 335
336 337 336 337 339 341 338 336 335 335 338 341 344 340 335 338 332 334 336 336 338 334 337 337 340 343 343 344 343 344 344 344 343 343 343 343 342 340 341 343 343 343 344 344 340 335 338 337 336 344 345 344 340 339 337 337 336 336 333 334 332 339
338 336 335 335 337 335 335 334 334 333 333 334 334 337 334 333 332 332 334 334 333 337 335 333 344 344 343 339 338 344 345 344 343 345 343 346 346 343 342 344 343 344 347 342 335 336 337 335 336 334 334 336 336 336 336 336 336 336 333 338 333 341
335 336 336 334 335 332 334 333 333 334 334 334 334 332 331 332 332 331 332 334 334 336 333 334 334 335 336 335 333 334 335 336 335 333 345 333 334 336 336 334 334 339 335 336 337 337 336 334 335 335 333 333 335 335 335 336 336 336 334 337 335 344
335 334 334 333 334 339 334 331 331 334 335 333 334 332 332 331 331 331 332 336 338 331 331 333 332 332 333 334 334 333 333 335 333 333 338 334 332 331 331 332 332 333 335 336 336 336 333 337 334 331 329 329 330 329 330 331 335 335 335 335 338 345
332 334 335 335 334 333 332 333 333 333 333 332 333 332 332 332 332 331 332 337 335 332 331 332 331 331 331 332 333 333 332 333 332 331 338 333 333 332 331 331 331 332 331 332 333 335 333 333 332 331 330 330 329 329 329 329 333 334 334 336 341 347
333 335 334 334 334 333 332 335 335 342 336 340 339 334 331 333 334 333 335 335 339 333 331 330 330 330 331 330 331 332 331 331 332 331 334 335 332 331 331 331 331 331 334 334 335 334 335 335 333 331 330 329 330 330 329 329 330 332 334 335 340 347
335 336 334 333 334 333 334 335 336 335 332 344 332 334 333 335 334 332 334 336 339 331 331 332 329 330 330 328 328 330 331 330 330 330 332 331 333 332 332 331 334 334 332 334 333 333 333 333 331 330 330 330 332 331 330 329 331 332 334 335 339 344
335 335 336 334 334 334 334 335 335 335 334 337 330 331 334 332 334 331 331 333 335 331 329 329 331 330 328 328 327 328 331 329 330 331 332 330 332 331 331 331 332 335 335 333 334 333 336 334 332 332 331 331 333 332 331 330 330 332 333 336 339 342
335 341 334 334 335 333 335 332 335 335 333 329 332 333 331 330 334 333 332 331 334 335 331 330 328 328 327 327 327 329 328 328 328 329 331 331 332 333 332 332 333 332 333 332 331 331 333 332 331 331 333 334 333 331 331 331 333 331 334 334 337 340
335 338 335 335 337 334 334 335 335 332 329 330 331 329 329 328 336 332 333 332 332 333 336 330 330 329 327 328 328 328 328 328 328 328 330 331 331 332 333 334 334 334 334 332 332 332 333 332 332 332 332 336 336 332 333 333 333 332 333 333 335 338
338 337 336 336 335 336 336 335 334 332 333 333 329 330 328 328 329 330 331 331 331 333 336 332 331 331 335 328 328 328 329 331 330 330 331 332 332 333 333 333 333 333 330 330 330 331 334 333 331 332 333 335 333 330 333 334 333 332 332 332 333 334
339 336 336 334 335 335 335 334 334 330 332 328 328 328 332 328 331 330 330 329 330 333 335 331 331 331 332 329 328 328 328 329 331 331 332 333 333 333 332 330 330 329 333 330 329 329 328 328 328 329 331 332 331 330 332 333 332 332 332 332 333 333
337 334 333 332 333 333 333 333 331 330 330 330 332 329 328 329 328 329 330 329 330 332 338 332 331 329 330 329 329 329 329 331 331 331 332 332 329 328 332 332 332 327 327 328 329 332 331 329 328 329 330 330 331 332 331 330 331 332 331 331 331 333
333 333 333 334 332 332 332 331 331 336 330 330 329 329 329 330 330 330 329 329 329 331 335 331 333 331 328 328 328 327 329 331 331 331 331 330 330 330 328 328 330 328 327 327 330 329 328 328 328 330 331 329 329 331 330 330 331 331 331 330 331 332
331 331 332 332 332 332 332 331 331 332 332 330 329 329 329 330 329 328 329 329 330 333 333 334 333 334 330 327 327 326 328 329 332 331 329 328 329 329 326 330 327 330 327 326 326 327 328 327 327 329 329 327 328 331 332 330 330 330 332 329 329 331
331 331 330 331 331 330 331 330 329 329 334 329 329 330 330 329 329 329 329 330 332 332 334 330 330 332 331 336 332 328 327 329 329 327 326 327 326 325 327 326 325 327 330 326 324 325 326 327 328 328 328 328 328 328 329 331 332 338 330 329 328 328
331 330 330 329 331 329 329 329 328 328 328 330 329 330 329 329 329 330 330 331 331 330 331 330 328 330 329 332 329 329 329 327 329 327 326 323 323 327 328 325 325 324 326 326 324 325 327 327 327 327 327 327 328 329 331 331 334 333 329 330 330 331
327 328 329 329 329 328 327 327 327 327 327 329 329 330 329 329 329 330 331 330 330 329 329 331 329 328 327 330 326 327 328 330 330 329 326 323 323 322 323 324 322 324 323 323 324 325 324 324 324 322 325 325 325 326 329 332 332 333 331 329 330 331
325 326 327 327 328 327 326 326 325 326 323 325 328 330 328 329 330 330 331 331 331 330 330 328 331 329 328 329 327 326 326 326 327 328 329 327 325 325 324 325 324 323 324 321 319 320 322 323 319 318 317 318 320 323 329 332 330 330 331 331 330 329
324 324 326 326 325 326 325 325 323 323 323 323 325 326 327 328 330 331 331 331 331 330 329 328 330 330 330 327 326 325 325 325 326 326 329 328 330 335 328 325 324 321 319 322 319 320 323 321 315 315 314 315 315 318 321 326 329 329 328 329 331 330
323 323 324 328 326 325 326 327 325 325 324 324 326 325 326 329 329 329 329 330 331 330 329 328 328 330 330 328 326 325 326 325 325 328 324 324 324 325 324 325 324 322 321 319 321 322 322 320 316 315 315 313 306 309 311 314 320 326 329 329 330 330
323 323 323 326 329 325 327 325 325 325 325 323 326 331 326 325 326 327 327 328 330 330 329 328 328 329 330 328 327 326 326 325 325 325 324 322 323 323 324 325 324 325 322 321 317 318 324 321 318 318 310 310 308 308 304 306 312 315 321 327 329 329
322 322 322 324 323 324 323 321 321 321 321 321 321 321 322 324 325 327 328 326 328 330 330 329 328 328 330 328 326 326 326 326 325 325 325 323 322 323 323 324 324 323 322 319 319 316 318 322 320 319 317 311 307 304 304 308 309 308 317 322 326 329
320 320 321 321 322 321 320 318 318 316 315 315 315 316 317 318 321 322 322 324 326 327 329 329 328 328 328 330 327 326 325 325 325 325 326 324 322 323 323 323 324 322 321 322 320 319 316 321 323 324 319 316 315 310 309 310 308 302 312 317 322 328
319 319 320 318 320 321 316 316 316 316 314 314 313 314 315 316 317 319 319 320 322 323 325 327 328 327 326 325 326 325 325 325 325 325 329 324 323 323 323 324 326 323 322 324 322 318 318 318 318 317 322 319 320 320 316 313 308 306 305 308 311 319
318 320 318 318 317 320 315 314 313 313 317 313 312 313 315 316 316 320 316 317 318 319 322 323 324 325 326 326 327 325 324 325 326 326 328 325 324 323 324 325 326 324 323 323 321 319 319 320 316 314 320 318 319 321 320 317 315 313 309 305 309 313
317 317 317 318 318 316 318 313 312 311 311 313 314 314 316 316 314 315 313 315 316 317 318 319 321 322 322 322 325 324 324 324 324 324 328 327 325 325 324 323 323 323 324 324 324 322 320 320 318 317 316 314 315 314 316 317 318 315 311 305 307 307
314 315 316 315 315 315 314 316 312 311 311 310 313 312 311 311 311 311 311 313 314 316 316 317 318 319 318 319 320 322 323 322 321 323 326 324 323 323 324 323 324 323 324 324 326 324 323 322 321 318 317 316 315 313 313 312 311 311 310 310 308 307
312 313 314 313 313 314 314 313 312 311 310 310 309 312 311 312 311 311 311 311 312 314 315 317 316 317 315 316 318 322 320 320 322 324 323 321 321 322 323 323 324 324 323 324 325 325 324 321 320 318 320 319 317 315 313 311 312 312 311 309 309 309
312 312 312 313 312 311 314 313 311 312 312 312 309 311 311 310 312 311 311 309 311 313 314 315 314 314 313 314 318 317 317 317 318 318 319 320 321 322 323 323 322 321 322 323 324 325 324 322 321 319 319 320 319 319 316 315 315 315 313 311 310 309
312 312 311 310 311 311 311 312 312 311 311 315 311 310 310 310 312 311 310 309 310 311 313 312 312 312 312 313 316 315 315 314 315 317 318 318 318 319 320 320 321 320 320 320 321 322 322 322 321 319 319 320 320 320 319 318 317 315 313 313 312 308
311 311 312 309 311 311 310 310 310 310 311 311 310 311 309 310 311 310 309 309 309 311 312 310 311 311 312 313 313 315 314 314 315 315 316 316 315 315 318 320 320 319 320 321 319 319 320 320 320 321 320 319 319 319 319 320 318 316 314 313 309 309
310 310 311 310 310 310 309 309 309 310 311 311 311 310 310 314 310 309 308 309 310 311 310 310 310 312 313 312 313 313 314 314 313 312 311 311 313 313 315 318 320 320 320 319 319 319 319 319 320 321 321 320 320 320 319 320 319 319 318 315 314 312
310 310 311 312 310 309 309 309 309 309 309 313 313 311 311 312 309 309 308 308 309 310 310 309 310 312 312 312 311 312 311 311 311 309 309 310 310 311 313 316 318 318 317 320 318 318 318 318 319 319 319 320 321 321 321 320 320 319 318 318 317 315
309 311 310 311 310 309 308 308 309 309 309 308 309 309 309 309 309 309 309 308 308 309 310 310 311 312 312 311 310 312 309 309 308 308 308 309 309 309 310 314 316 315 315 316 316 317 317 317 318 318 319 320 320 321 322 322 321 321 320 319 318 316
Wind_Speed
4 4 4 4 3 3 5 8 7 8 8 7 7 7 7 7 6 5 5 5 5 2 2 2 2 1 3 1 3 2 2 2 2 3 3 2 1 1 2 1 1 3 3 3 3 4 6 7 9 10 12 11 12 5 2 2 1 2 5 6 7 6
4 4 4 3 3 3 4 5 4 3 3 3 3 5 3 3 4 2 4 3 2 2 2 2 1 3 1 1 1 2 1 2 2 3 2 3 1 1 1 1 1 2 3 3 5 2 3 6 9 11 12 13 7 4 1 2 1 2 5 5 6 7
4 4 4 3 3 3 3 3 3 2 1 3 4 3 2 2 2 2 2 2 2 2 2 2 1 1 0 3 2 1 0 1 0 3 3 2 2 2 2 2 3 3 3 4 2 2 3 4 5 9 10 7 5 5 3 1 2 2 6 6 5 10
4 4 3 2 3 3 2 2 1 0 1 1 1 1 1 1 2 1 1 1 1 1 2 2 4 4 4 2 3 5 4 3 2 2 2 3 2 1 1 1 2 4 2 2 2 3 3 3 5 5 5 5 4 4 2 2 2 1 5 7 7 13
4 4 3 4 3 2 2 2 2 1 1 1 1 0 1 1 1 1 0 1 1 1 1 2 2 2 2 2 2 2 3 3 3 4 4 2 1 1 3 1 2 3 3 2 3 4 3 5 5 4 3 3 3 3 3 3 4 3 5 5 8 16
3 3 4 3 2 2 2 1 2 2 2 1 0 0 1 0 0 0 0 0 1 2 2 1 1 1 1 1 2 1 2 2 3 3 3 3 2 2 1 1 1 2 3 3 3 4 4 4 4 4 2 2 3 3 4 3 4 4 6 6 8 18
3 3 3 3 2 2 1 1 2 2 2 4 2 1 0 1 1 1 1 0 0 0 0 1 0 0 0 0 0 1 1 1 2 3 3 2 2 1 1 1 2 3 3 3 3 3 4 3 2 2 2 2 3 3 4 4 3 5 6 6 8 19
3 3 3 4 4 4 3 3 2 2 1 3 1 2 3 2 2 2 2 2 2 3 2 1 1 1 0 0 1 1 1 1 1 1 1 1 2 2 2 2 2 3 2 2 2 3 3 3 3 1 2 3 2 2 3 5 1 3 5 5 6 14
3 2 3 2 3 4 4 4 4 3 2 3 2 3 4 4 3 3 2 2 2 2 3 3 3 2 2 0 0 1 0 1 1 1 1 1 1 2 2 3 3 3 2 3 4 4 4 4 4 3 2 3 1 1 3 2 2 3 3 5 6 7
2 3 3 1 3 4 4 4 4 2 1 1 3 4 5 5 5 4 3 2 2 1 1 2 3 3 2 1 0 0 0 0 1 1 0 2 2 2 3 3 3 3 3 4 4 5 4 4 4 3 3 2 1 1 2 2 2 4 5 5 5 5
2 1 1 0 0 1 1 1 2 1 3 1 1 2 3 4 5 5 4 2 3 1 1 1 1 2 2 2 2 2 3 2 2 3 1 1 2 2 3 4 4 4 5 4 4 4 4 4 4 6 3 3 1 3 3 5 2 2 3 5 5 4
4 3 3 3 2 2 3 3 3 4 2 1 1 1 1 2 2 2 4 3 1 2 1 2 1 1 2 1 2 3 2 2 4 3 2 3 2 2 3 4 4 4 4 3 4 4 4 4 4 2 7 5 1 7 4 4 5 2 0 3 5 5
6 6 7 6 5 4 5 4 4 4 3 2 3 4 5 4 2 2 3 3 2 1 1 2 2 2 1 2 2 2 3 3 3 3 3 3 2 2 2 3 4 2 2 2 2 4 3 3 4 5 5 5 6 4 6 5 4 4 3 4 5 6
7 7 7 6 6 5 5 4 4 4 2 2 2 3 5 5 5 5 5 5 4 2 1 1 1 2 1 2 3 3 3 4 3 2 2 3 4 3 3 2 3 1 3 2 4 5 4 4 4 5 5 4 2 8 6 4 4 4 4 3 4 4
7 7 6 6 5 5 4 4 5 4 4 3 4 4 5 5 6 6 6 5 6 6 4 1 2 3 1 2 3 3 3 4 3 2 1 2 2 2 3 4 4 1 1 2 2 3 3 4 4 5 5 3 3 6 3 2 4 5 5 5 4 5
5 6 6 5 4 4 4 3 3 4 4 3 4 5 5 5 4 5 5 5 6 7 6 5 1 0 1 1 1 3 5 4 3 2 2 2 2 4 4 0 1 1 0 2 2 3 2 3 3 4 4 3 3 2 7 4 5 6 5 4 5 5
7 6 5 5 5 5 5 5 5 5 4 4 5 5 4 3 3 3 4 5 5 6 7 6 5 0 1 3 2 2 2 3 3 4 3 4 3 3 3 1 2 2 2 2 3 3 4 3 3 3 3 3 3 3 5 8 7 7 5 4 4 4
5 4 4 3 3 4 4 4 5 5 5 6 6 5 5 4 5 4 4 5 5 5 5 6 6 6 7 4 3 0 2 1 1 2 2 1 2 2 3 2 3 3 3 2 2 3 5 5 5 4 5 4 4 3 4 5 6 6 5 6 5 5
5 5 5 3 2 2 3 3 4 5 5 6 6 5 5 6 6 5 6 6 5 5 5 4 5 5 5 5 6 6 4 3 1 0 1 1 1 0 0 1 1 2 2 3 3 3 4 4 4 4 5 5 4 5 5 4 4 5 6 6 6 6
7 6 5 4 4 5 4 4 6 6 7 7 6 6 6 6 6 7 6 6 6 6 6 5 5 4 4 5 5 5 6 7 7 4 2 3 3 3 2 1 2 1 3 3 2 3 3 3 3 3 4 4 4 4 5 5 4 5 5 5 6 4
7 6 6 6 5 5 5 5 5 6 4 5 5 5 6 6 6 5 6 6 6 7 7 7 6 6 6 5 4 4 5 5 6 6 6 5 4 4 3 2 2 1 1 1 1 2 3 1 1 4 3 3 5 3 4 4 6 6 6 5 5 5
7 7 6 5 4 3 3 2 2 3 2 3 5 6 6 7 6 6 6 6 6 6 7 7 7 6 6 6 6 6 5 5 4 5 4 5 5 5 5 6 4 4 1 1 2 2 4 1 3 1 3 6 5 5 3 2 3 3 4 5 5 6
6 6 6 6 6 5 4 4 3 2 2 2 2 2 3 4 5 6 6 5 5 5 6 6 6 6 6 6 6 5 6 5 5 5 5 6 6 7 6 5 5 4 7 2 2 3 2 1 1 1 0 1 3 6 6 5 1 2 5 6 5 3
6 6 7 7 6 6 5 5 5 5 2 1 2 4 4 4 5 6 7 7 6 6 5 5 5 5 5 6 6 6 5 6 6 4 4 4 5 6 7 7 7 6 2 5 3 3 1 1 2 0 3 1 2 0 5 2 3 6 2 3 4 5
6 5 6 6 7 6 6 7 6 6 5 5 5 6 6 7 7 6 6 7 7 6 5 5 4 4 4 5 4 5 5 5 6 6 5 5 5 4 3 3 3 5 5 3 6 3 3 0 1 1 2 1 3 2 2 4 3 6 2 2 3 8
6 6 6 5 5 5 5 5 6 7 8 6 7 7 8 7 7 7 6 5 6 6 5 4 5 4 4 3 4 4 3 5 5 6 5 5 4 5 7 6 4 2 4 3 2 5 4 4 0 2 3 4 3 3 3 3 2 5 5 1 1 4
5 4 4 5 5 5 6 5 5 5 4 5 5 4 3 4 4 5 5 6 6 6 6 6 5 4 4 3 3 3 4 3 4 4 4 5 5 5 5 5 6 5 4 3 3 4 6 6 6 2 1 3 2 3 2 2 4 1 5 6 3 2
4 3 4 4 5 4 5 4 5 5 4 4 4 3 4 4 4 4 6 6 5 5 6 6 6 6 5 5 4 4 3 3 4 4 3 4 5 5 5 5 4 4 4 3 1 2 4 6 4 5 1 2 2 3 3 4 4 5 4 4 8 2
4 4 4 4 4 4 3 4 4 4 5 3 2 4 4 3 4 5 6 7 6 6 5 5 5 5 6 6 5 4 4 4 4 5 3 4 4 4 4 5 6 6 6 6 4 3 3 5 4 5 7 6 4 4 4 3 4 3 4 3 5 5
5 4 4 4 3 4 4 4 5 4 5 6 5 5 3 5 4 4 5 6 6 7 6 6 5 5 5 6 5 5 5 5 4 4 4 4 4 4 4 4 4 4 4 5 5 4 4 5 4 6 5 5 8 9 6 4 1 1 2 4 6 4
4 3 3 4 4 4 4 4 4 5 5 5 5 5 6 7 5 6 6 6 7 7 6 6 6 6 6 5 5 5 5 5 5 4 5 5 5 5 4 4 4 4 4 5 5 6 5 3 2 4 3 2 3 4 8 8 8 5 3 3 2 4
3 2 3 3 4 5 4 5 5 5 6 5 5 5 6 6 5 5 5 6 6 6 6 6 6 6 7 7 6 5 5 4 5 5 6 5 5 5 5 4 4 3 4 5 4 5 5 6 3 2 5 4 5 4 4 9 9 7 5 5 3 5
0 0 1 2 5 5 5 5 5 5 5 5 6 5 5 5 4 5 5 6 6 6 6 6 6 7 7 8 7 7 7 6 5 5 5 5 5 6 5 5 4 4 4 4 4 4 5 6 5 3 3 5 5 4 6 6 7 10 7 5 4 4
1 2 0 4 5 5 4 4 4 4 3 3 4 4 4 3 5 5 5 5 5 5 6 6 6 6 6 6 7 7 6 7 5 5 4 5 5 6 6 6 4 5 5 5 3 4 5 6 5 5 3 4 4 5 7 6 8 9 8 5 5 4
1 1 2 4 4 4 4 4 4 4 4 3 3 2 2 2 3 4 4 4 6 6 6 6 6 6 6 7 7 7 7 6 6 6 6 6 6 6 7 6 5 5 5 4 5 5 5 5 6 6 4 4 5 5 6 7 6 6 5 5 6 6
4 2 1 4 4 4 3 2 2 2 2 3 3 2 2 2 3 3 4 4 5 5 6 6 7 6 7 5 6 6 5 6 5 6 6 6 6 6 7 7 6 5 6 3 4 5 5 4 6 6 6 5 5 5 5 6 6 6 6 5 5 5
3 2 2 3 4 3 3 2 1 0 1 3 3 3 2 3 3 4 4 4 4 5 4 5 6 5 5 5 5 5 5 6 7 6 6 6 6 6 6 7 6 4 5 5 4 5 5 5 6 5 5 6 6 7 6 5 5 5 6 5 5 5
Wind_Direction
21 30 53 54 42 36 53 62 49 52 57 71 76 62 54 51 62 32 61 39 34 53 57 36 1 319 37 14 73 86 90 95 76 62 68 74 65 307 224 221 304 278 270 283 300 322 314 307 305 304 302 301 302 315 115 135 234 263 176 169 173 180
14 21 46 46 46 45 31 48 50 37 25 19 87 85 54 68 56 31 45 50 42 16 27 6 331 347 322 34 1 82 143 126 142 107 78 91 132 151 146 161 272 271 266 290 303 344 314 306 303 300 297 294 296 302 350 107 186 239 173 172 173 188
4 19 48 51 56 51 55 68 63 51 23 17 25 64 53 66 77 58 48 29 43 1 38 25 347 301 328 46 15 45 133 120 106 147 126 118 133 176 169 200 234 256 267 281 323 325 287 289 293 294 298 298 290 293 317 44 277 215 176 173 169 192
5 6 43 30 63 49 53 76 83 129 98 27 15 67 76 99 102 97 79 86 40 36 53 14 26 37 31 18 14 8 17 5 6 51 124 66 25 14 230 342 276 259 289 323 295 278 289 280 273 274 280 288 291 288 297 279 250 235 181 171 172 191
351 2 12 9 38 12 47 39 8 1 8 5 309 87 57 59 65 75 87 85 128 72 71 34 57 30 18 3 6 22 8 15 3 7 32 52 62 50 46 8 349 322 300 284 287 281 279 282 281 269 238 250 263 269 264 216 240 200 187 177 174 186
352 350 351 7 359 339 56 19 341 302 331 293 167 230 135 131 298 114 193 42 58 73 58 50 28 16 34 31 17 338 4 6 22 359 4 21 32 47 33 36 345 315 291 278 264 267 259 256 254 252 258 261 268 280 277 248 216 197 185 177 181 184
344 335 327 335 347 355 345 297 292 284 285 302 299 306 305 204 198 200 197 221 166 280 111 136 133 310 53 12 103 327 356 14 20 357 2 35 358 350 360 335 301 286 286 289 278 263 255 244 242 270 273 273 273 303 288 275 207 188 178 187 184 184
334 335 319 339 344 327 321 318 277 280 342 274 272 301 291 255 236 212 206 213 203 173 178 154 175 168 213 95 34 74 53 21 359 354 314 27 352 331 330 310 285 281 295 276 280 286 288 283 276 254 289 283 296 24 314 312 179 176 164 180 190 188
344 333 310 331 320 313 308 306 304 307 328 327 10 342 321 306 282 267 252 238 223 165 152 147 160 189 153 181 229 359 65 274 7 312 311 314 299 294 293 289 293 292 284 294 292 288 293 289 287 284 255 289 292 20 325 336 135 140 146 169 195 197
333 294 313 295 292 304 291 276 275 288 229 45 348 1 333 320 287 280 267 249 269 189 205 163 156 166 140 222 186 192 241 228 256 248 38 295 263 242 268 280 284 283 279 271 271 269 278 283 281 272 283 278 271 84 317 349 42 142 146 159 187 190
350 7 71 32 295 289 271 315 340 51 65 34 344 2 343 336 289 277 262 238 232 228 197 199 158 172 178 197 204 188 201 201 238 258 230 258 292 273 271 260 261 266 269 264 261 268 280 280 298 305 279 243 209 96 25 337 9 85 154 169 173 187
349 336 21 18 352 338 352 9 41 36 41 317 338 300 349 350 328 305 296 286 199 211 173 241 171 207 207 234 259 238 229 186 210 221 212 225 248 265 287 281 274 276 269 263 275 281 270 263 258 204 262 249 119 43 6 318 328 2 166 187 179 190
13 17 20 12 12 15 27 36 32 38 29 354 329 353 346 345 326 341 350 2 311 195 225 194 232 202 239 218 234 239 256 249 219 199 202 199 223 254 248 278 288 279 290 292 293 285 277 257 258 250 233 239 115 130 249 238 246 271 245 217 193 191
18 30 37 26 24 23 30 25 31 37 40 357 346 350 340 343 350 1 2 341 346 314 183 238 207 269 236 251 277 285 282 279 265 223 196 173 191 196 215 235 252 314 323 339 311 297 305 299 275 266 257 256 138 165 215 236 225 238 239 223 225 201
24 38 38 32 31 28 27 27 19 16 7 357 357 357 350 354 358 355 352 349 355 346 333 215 201 157 236 211 231 264 269 265 287 293 281 258 220 216 199 205 176 189 269 278 254 267 251 265 282 284 262 239 239 137 187 250 271 251 233 223 212 224
34 40 36 29 16 33 39 38 23 21 18 11 4 7 7 1 355 347 356 348 348 345 339 317 159 246 95 183 215 224 235 244 254 274 274 261 292 292 270 305 236 163 218 290 275 283 276 295 290 283 274 233 241 187 155 212 253 264 248 207 213 217
25 24 28 21 13 21 25 28 25 16 19 9 13 8 3 349 357 355 357 348 346 350 335 351 315 340 34 354 17 287 224 236 191 185 198 209 227 264 267 223 266 266 165 241 282 301 308 301 296 290 289 269 245 213 188 175 212 237 239 226 223 225
26 23 25 23 20 13 10 13 19 17 12 13 7 5 355 0 357 352 348 1 357 357 7 358 6 356 352 339 15 314 271 256 206 182 182 170 256 276 249 232 242 263 218 208 244 274 295 301 307 309 309 296 280 254 231 204 202 204 200 216 226 218
13 6 4 7 19 22 11 10 5 17 15 11 9 3 2 4 2 355 5 355 5 4 353 9 20 14 3 3 359 353 335 311 312 24 350 350 305 265 172 177 199 273 275 234 220 227 238 260 283 290 289 287 290 276 262 233 197 194 198 211 213 218
12 358 350 357 7 20 24 22 22 5 20 10 1 3 6 9 2 10 359 2 360 358 357 360 9 10 24 13 8 9 358 352 347 343 333 326 307 311 304 303 293 256 311 318 277 251 254 259 276 265 269 285 275 264 261 243 220 210 202 213 226 223
2 8 16 6 4 14 18 6 20 22 17 1 353 3 8 5 9 1 359 0 5 360 359 1 3 1 12 8 13 8 10 359 0 357 339 310 290 300 286 268 297 323 273 325 312 317 299 214 311 311 322 306 304 277 259 237 221 216 219 212 217 223
10 13 17 21 10 16 0 15 63 21 354 334 0 8 2 1 356 354 359 4 5 1 3 3 358 1 359 13 6 2 5 1 357 358 352 340 335 327 335 330 341 331 342 298 273 269 294 24 350 241 320 322 320 310 290 273 245 244 233 220 198 213
13 18 15 17 26 18 5 8 31 22 39 332 317 324 337 346 345 351 352 357 360 6 5 4 4 359 358 1 3 360 357 347 356 356 8 358 350 342 335 326 323 304 308 328 284 275 284 155 239 249 274 355 317 358 332 353 332 256 246 226 191 142
12 15 15 14 23 14 19 17 17 22 360 37 344 347 342 343 357 0 1 350 351 358 1 6 2 2 357 360 2 356 348 356 350 357 357 5 360 356 346 335 334 322 317 307 331 305 290 179 151 168 332 274 267 110 320 317 324 297 256 221 189 140
25 21 17 17 18 15 19 21 15 16 20 8 3 13 13 8 3 358 355 354 340 341 348 353 359 360 2 360 360 356 356 347 352 350 354 2 355 336 337 338 344 348 340 298 310 298 309 302 281 205 168 5 339 5 238 251 332 285 336 11 168 154
36 34 31 23 22 33 31 36 24 30 23 17 19 15 20 4 356 5 356 329 342 345 337 342 346 356 358 353 352 350 348 349 350 347 351 353 340 345 349 347 348 346 339 337 291 305 301 311 291 253 206 197 175 226 275 277 24 294 317 263 343 162
35 32 28 35 33 42 41 37 39 39 43 38 31 358 343 353 3 343 351 2 352 356 0 354 340 350 349 347 339 336 344 344 335 340 337 353 353 346 331 328 330 344 337 326 3 346 322 294 327 320 226 240 263 246 212 279 262 318 329 319 346 119
22 26 17 28 32 37 64 47 46 35 30 30 38 358 339 345 351 353 356 350 348 354 358 5 2 357 356 356 354 351 344 340 338 329 326 339 331 323 326 325 328 325 320 341 355 300 292 295 281 282 298 305 284 290 262 249 229 234 241 293 306 307
28 25 10 14 27 17 47 74 69 60 33 355 357 338 327 339 352 354 7 347 352 342 350 353 4 359 355 355 353 351 349 348 344 332 321 320 318 321 320 321 329 336 336 326 323 285 258 286 292 296 350 333 342 308 313 263 257 215 213 224 273 265
22 18 6 10 22 20 21 35 43 35 38 10 1 343 352 344 344 348 10 355 348 345 341 346 348 356 351 350 343 342 347 343 336 329 333 324 312 313 315 315 311 308 309 316 309 313 309 307 347 37 7 341 330 330 334 327 330 236 275 213 237 273
11 14 4 5 23 17 15 18 31 35 34 20 7 8 2 354 347 358 360 356 358 341 340 338 340 344 349 344 338 336 340 336 331 332 331 327 321 310 300 292 295 310 316 311 307 308 313 313 54 58 292 251 279 277 296 293 280 273 250 268 290 281
12 355 6 359 25 20 22 14 16 17 19 6 14 12 13 3 355 353 352 348 354 359 347 334 344 341 342 339 335 327 331 342 338 333 328 320 313 310 302 293 291 292 296 299 297 303 304 307 313 150 259 242 242 227 255 280 290 271 230 244 210 258
67 295 6 25 35 31 33 28 22 19 13 360 2 10 12 6 357 356 351 351 357 356 338 347 341 342 333 333 331 329 331 336 330 325 324 329 323 324 312 299 295 295 285 284 289 298 306 302 298 269 219 217 244 262 249 238 268 288 284 239 227 259
213 251 30 61 54 49 33 37 36 26 358 358 353 7 351 1 344 354 355 344 343 340 335 333 331 327 318 330 337 332 326 324 326 323 331 328 329 333 334 311 298 297 294 291 298 297 292 296 294 276 247 228 227 226 245 239 226 222 248 280 274 231
183 283 38 71 83 76 53 39 33 19 354 330 343 2 327 328 339 349 340 344 336 332 331 319 324 313 332 344 339 343 338 341 335 333 333 337 332 334 336 327 307 298 306 328 321 309 297 298 296 294 287 258 257 251 248 251 257 259 249 245 251 262
175 193 66 86 97 101 88 69 40 30 337 333 341 355 337 326 309 310 328 339 326 323 315 316 323 335 333 340 339 341 336 344 336 337 338 337 336 337 333 325 314 328 330 337 321 311 301 293 287 290 291 288 273 265 259 265 258 262 256 252 254 257
199 137 107 125 124 127 110 71 334 301 349 10 0 356 296 286 291 311 338 328 330 312 320 325 324 331 331 329 329 332 332 337 337 338 342 338 335 340 341 330 327 336 324 314 311 303 300 298 292 292 291 290 292 292 286 275 268 267 270 266 255 250